Wind_Speed
39 39 36 35 35 35 34 33 32 32 31 29 28 28 28 27 25 24 24 25 26 28 30 31 30 31 32 35 38 40 41 40 39 38 39 40 40 42 43 45 47 50 52
40 39 36 34 34 35 35 34 34 33 31 30 29 28 27 27 26 26 26 27 28 30 32 32 32 34 36 38 40 42 42 41 40 39 40 41 43 45 48 50 52 55 58
43 41 37 35 34 35 36 36 35 34 33 32 30 28 28 28 28 29 29 30 32 33 35 35 36 37 39 41 42 43 43 43 42 42 43 44 44 45 47 52 56 59 61
45 42 38 36 36 36 37 38 36 35 34 32 31 30 30 30 31 32 33 34 36 37 38 39 40 41 43 43 43 43 43 43 44 45 47 50 52 53 52 53 57 60 61
47 43 39 37 38 38 38 39 38 35 33 33 32 32 31 31 32 33 35 37 39 40 41 42 43 44 44 44 44 43 43 44 47 49 52 54 57 60 62 60 60 61 61
47 44 40 39 39 39 38 39 38 36 34 33 33 33 32 32 34 35 37 39 40 42 43 44 45 44 44 44 44 43 45 48 51 54 57 60 62 64 66 66 65 65 64
47 45 41 40 39 39 38 38 37 36 34 33 33 32 32 33 35 37 38 39 41 42 43 45 45 43 44 44 44 45 48 52 56 59 62 65 67 69 71 72 70 69 69
47 45 42 41 40 39 38 37 36 36 35 34 32 32 32 34 35 37 38 40 41 42 44 45 44 43 44 44 46 49 52 56 60 63 66 69 71 74 75 75 75 74 73
45 43 42 42 41 39 38 36 36 35 35 33 32 32 33 34 35 37 39 40 41 42 43 43 43 44 44 46 49 52 56 59 63 66 69 72 75 76 76 76 77 79 80
43 40 40 41 40 39 38 37 35 34 34 33 32 33 33 35 36 37 39 39 40 41 42 42 43 45 47 49 52 56 59 63 66 69 72 75 77 76 76 77 79 83 86
39 37 39 39 39 38 38 36 35 34 33 33 33 33 34 35 36 37 38 38 39 41 41 43 45 48 51 53 56 59 63 65 69 72 76 76 76 75 77 80 84 89 95
36 36 39 40 39 38 37 36 35 35 34 34 34 34 34 35 35 36 36 38 40 41 42 44 48 51 54 57 60 62 64 68 72 75 76 75 75 77 80 85 91 97 103
35 36 38 40 39 37 36 35 35 35 35 35 34 34 34 34 34 35 37 39 40 41 44 48 51 54 57 59 60 63 67 72 74 74 74 75 77 81 86 92 98 103 109
38 37 37 37 36 35 35 35 35 35 35 34 34 33 32 33 34 35 37 38 40 44 48 51 54 56 57 60 64 68 71 73 72 72 74 77 81 86 92 98 104 110 112
36 36 35 34 33 33 33 33 33 33 33 33 31 30 31 32 34 35 36 39 43 47 51 54 55 56 60 64 68 70 71 70 71 73 76 81 87 92 98 105 110 110 106
33 33 32 32 32 31 31 30 30 30 29 28 28 29 30 31 33 35 38 42 46 50 52 54 56 60 64 67 70 70 69 71 73 76 81 87 93 98 104 109 108 100 90
29 29 28 28 28 27 27 26 25 24 24 24 26 27 29 30 33 37 41 45 49 51 54 57 60 63 66 69 69 68 70 72 76 82 87 93 98 104 107 105 94 81 70
21 21 21 20 20 20 19 19 19 19 20 22 24 26 29 33 37 41 44 48 51 54 56 59 62 65 66 66 67 69 71 76 82 88 93 98 102 105 103 92 78 63 54
15 15 14 14 13 14 14 15 16 18 20 22 25 28 32 36 40 43 47 50 52 54 57 60 63 64 63 65 67 71 75 81 87 93 98 102 104 100 90 76 61 49 43
12 12 11 11 11 12 13 14 16 18 21 24 28 32 35 39 42 45 48 50 52 55 58 61 61 61 63 66 70 75 80 86 91 96 100 102 97 85 72 59 47 39 38
11 11 11 11 12 13 14 16 18 21 24 28 31 34 37 40 43 45 48 50 53 56 58 58 59 62 65 70 75 81 86 91 95 98 98 93 81 69 57 47 39 36 35
12 12 12 13 14 15 17 19 22 25 28 30 33 36 38 41 43 46 48 52 54 54 55 57 60 65 70 74 79 85 90 95 97 96 89 77 65 54 45 38 35 34 34
13 13 14 15 16 18 20 23 25 27 29 31 34 36 38 41 44 47 49 51 52 53 55 58 62 67 73 78 84 89 93 96 95 86 74 62 52 43 37 35 33 32 31
14 14 15 16 18 19 21 23 25 27 30 32 35 37 40 42 45 47 48 49 51 53 57 61 66 71 77 82 88 92 95 93 84 71 59 50 42 37 34 34 32 31 31
14 14 14 15 16 18 21 24 27 29 32 34 36 38 41 43 45 46 47 49 52 56 60 65 70 76 81 87 93 96 92 83 71 58 47 40 35 33 33 33 33 33 33
12 13 14 16 19 21 24 27 29 31 33 35 37 39 41 43 44 45 48 51 55 60 65 71 76 82 87 93 95 90 80 68 57 47 39 34 32 31 31 31 32 33 33
Wind_Direction
246 248 249 246 244 244 245 244 244 244 246 249 253 256 253 249 249 254 260 265 270 276 281 282 281 283 286 289 292 295 297 298 298 297 296 295 294 294 294 295 295 295 295
244 246 246 244 241 241 243 244 244 244 245 248 252 256 253 248 249 255 260 265 271 276 281 283 283 286 290 293 295 297 298 298 297 295 293 293 296 298 299 298 297 297 297
241 243 244 244 241 239 241 243 244 244 245 248 252 254 250 249 252 257 261 267 272 277 280 283 286 290 294 296 297 298 298 297 296 294 294 294 294 294 295 297 298 298 298
241 241 241 242 241 239 239 242 243 244 245 248 250 251 251 253 255 258 263 268 272 277 280 283 287 291 294 296 297 297 297 297 297 298 298 298 298 297 295 294 295 295 295
242 241 239 238 239 239 239 240 243 244 245 247 248 250 252 254 257 260 264 268 273 277 280 284 288 292 295 296 297 297 298 298 299 300 300 300 299 299 298 298 297 297 296
242 240 236 235 236 238 238 240 242 245 247 247 248 249 252 256 259 262 266 270 274 277 280 284 289 293 295 296 297 298 299 300 301 301 300 300 299 300 300 300 299 297 296
240 239 235 232 232 235 237 239 242 245 246 246 248 251 254 258 261 264 267 271 274 278 281 286 290 293 294 296 297 299 300 300 300 300 300 301 302 303 303 302 301 299 297
238 235 230 225 226 231 235 238 242 245 245 246 248 252 255 259 262 266 269 272 276 280 284 288 291 293 295 297 298 299 299 299 299 300 301 302 303 304 304 303 301 299 297
233 231 224 221 223 228 233 238 242 245 246 246 249 253 257 261 264 268 271 274 278 282 286 290 292 294 297 299 299 299 298 298 300 301 303 304 305 305 305 303 302 301 300
226 223 218 217 221 227 232 237 243 246 248 248 251 254 259 263 267 271 274 278 283 285 289 292 294 296 299 299 299 299 298 300 301 303 304 306 306 305 304 303 303 303 303
217 215 213 215 221 227 232 238 244 247 249 250 253 256 260 265 270 274 279 283 285 288 290 293 296 299 300 300 299 299 300 302 303 305 306 306 306 305 305 305 306 306 306
208 209 210 215 221 228 234 239 244 248 249 251 254 258 263 268 273 278 282 285 287 289 292 296 298 300 300 300 301 302 303 304 305 306 306 306 306 307 307 307 308 308 308
202 205 209 215 221 228 234 239 243 246 248 251 255 259 265 271 277 281 284 286 289 293 296 298 299 300 302 303 304 305 305 306 306 307 307 307 308 309 309 310 310 310 310
199 204 209 215 222 228 234 238 241 245 248 251 256 261 268 274 279 283 286 289 293 296 298 299 301 302 304 305 306 306 307 307 307 308 309 309 310 310 311 311 312 312 311
202 206 211 216 222 228 233 237 241 245 248 252 257 264 271 277 282 285 289 293 296 298 299 301 303 305 306 307 307 307 308 308 309 309 310 311 311 312 313 314 314 313 312
201 205 210 216 222 228 232 236 240 244 249 255 262 269 275 280 285 290 294 296 297 299 302 303 305 306 307 307 307 308 309 309 310 310 311 312 313 314 315 316 316 314 313
197 203 209 216 222 226 230 235 240 248 256 263 269 274 279 285 290 294 296 297 299 301 303 304 306 306 307 308 308 309 310 310 311 312 312 314 315 316 317 317 315 314 313
191 199 207 213 219 225 232 240 249 257 264 269 275 281 287 291 293 295 297 299 301 302 304 305 306 307 307 308 309 310 311 311 312 313 315 316 317 317 317 316 315 315 314
186 196 205 214 224 234 243 251 258 264 270 277 283 287 290 292 295 297 299 300 302 303 304 305 306 307 308 309 310 311 312 313 314 316 316 317 317 317 316 316 316 315 315
202 212 220 227 235 244 251 258 265 272 278 283 287 289 292 294 296 298 299 301 302 304 305 306 307 308 309 310 310 311 313 315 316 317 318 318 318 317 316 317 317 315 316
217 225 231 239 248 256 262 268 274 279 283 286 289 291 293 295 297 298 300 302 303 304 306 308 309 310 311 312 313 314 316 317 318 318 318 318 317 317 317 318 318 318 320
226 233 242 250 257 263 268 273 278 282 285 288 290 292 294 296 298 300 301 302 304 306 308 309 310 311 312 314 315 317 318 318 319 319 319 318 317 317 318 318 319 320 322
231 239 248 255 262 268 274 278 282 285 287 290 292 294 296 298 300 301 303 305 307 308 309 310 311 313 315 316 318 319 319 319 320 320 319 318 318 318 318 319 320 320 320
241 248 255 262 269 275 280 283 287 289 291 293 295 296 298 300 302 304 306 307 308 309 310 312 314 316 317 318 319 319 320 320 321 320 318 319 319 319 320 321 322 322 321
250 256 261 268 277 284 289 291 292 293 294 295 297 299 301 303 305 306 308 308 309 311 313 315 317 318 319 320 320 321 322 322 321 320 320 320 320 321 323 323 324 324 325
254 261 270 280 287 291 293 294 294 295 296 298 301 303 304 306 307 308 309 311 313 315 317 319 320 321 321 321 322 323 323 322 322 322 322 322 322 324 325 325 325 325 325
Height
5735 5737 5741 5745 5748 5750 5751 5753 5754 5756 5757 5758 5759 5760 5761 5763 5765 5766 5766 5765 5765 5764 5763 5762 5761 5760 5758 5755 5753 5750 5747 5743 5739 5735 5731 5728 5725 5721 5718 5715 5710 5706 5702
5726 5729 5733 5737 5740 5742 5744 5745 5747 5748 5750 5751 5753 5754 5756 5757 5758 5759 5759 5758 5758 5757 5756 5755 5754 5752 5750 5747 5744 5741 5737 5734 5730 5727 5724 5720 5717 5711 5707 5702 5698 5693 5688
5717 5721 5725 5729 5732 5735 5737 5738 5740 5742 5743 5745 5747 5748 5749 5750 5751 5752 5752 5751 5751 5750 5749 5748 5746 5744 5741 5738 5735 5731 5727 5724 5720 5717 5714 5711 5708 5706 5702 5693 5686 5680 5674
5707 5712 5717 5722 5725 5727 5729 5731 5733 5736 5737 5739 5740 5742 5743 5744 5744 5744 5744 5744 5743 5743 5742 5740 5738 5735 5731 5728 5724 5721 5717 5713 5709 5705 5700 5696 5692 5689 5688 5686 5677 5670 5663
5698 5703 5708 5714 5717 5719 5721 5724 5726 5729 5731 5732 5734 5735 5736 5737 5737 5737 5736 5736 5736 5735 5734 5732 5728 5725 5721 5718 5714 5710 5706 5702 5698 5693 5688 5682 5677 5670 5666 5666 5662 5656 5648
5689 5694 5699 5704 5708 5711 5714 5717 5719 5722 5723 5725 5726 5728 5728 5729 5729 5729 5728 5728 5728 5727 5725 5722 5719 5715 5712 5708 5703 5699 5694 5690 5685 5679 5674 5668 5663 5656 5650 5646 5643 5639 5633
5679 5685 5690 5695 5700 5704 5707 5710 5713 5715 5716 5718 5719 5720 5721 5721 5721 5721 5721 5721 5720 5718 5716 5713 5709 5705 5702 5698 5693 5688 5683 5678 5672 5666 5659 5652 5645 5638 5631 5625 5621 5617 5613
5669 5674 5681 5687 5691 5695 5699 5703 5706 5708 5709 5710 5712 5712 5713 5713 5713 5713 5713 5712 5711 5709 5706 5703 5699 5696 5692 5687 5682 5677 5672 5665 5659 5652 5645 5637 5629 5621 5613 5604 5598 5594 5592
5658 5665 5672 5678 5683 5688 5692 5696 5698 5700 5702 5703 5704 5705 5705 5705 5705 5705 5705 5704 5702 5700 5696 5693 5689 5686 5681 5677 5671 5666 5660 5653 5646 5638 5630 5622 5613 5603 5594 5584 5575 5567 5563
5648 5656 5664 5671 5676 5681 5685 5688 5691 5694 5695 5696 5697 5697 5697 5698 5698 5698 5697 5695 5693 5690 5687 5683 5680 5675 5671 5665 5660 5654 5647 5640 5632 5623 5615 5605 5596 5586 5575 5566 5556 5544 5535
5641 5650 5658 5665 5670 5674 5678 5682 5685 5687 5688 5689 5689 5690 5690 5690 5690 5689 5688 5686 5684 5681 5678 5674 5670 5665 5659 5653 5647 5640 5633 5625 5617 5608 5599 5589 5578 5569 5558 5548 5537 5524 5510
5635 5643 5651 5657 5663 5667 5672 5675 5678 5680 5681 5682 5682 5682 5682 5682 5682 5681 5679 5677 5675 5672 5668 5664 5659 5653 5647 5641 5634 5627 5619 5610 5601 5592 5582 5572 5562 5552 5541 5529 5516 5501 5485
5629 5637 5644 5651 5656 5661 5665 5668 5671 5673 5674 5674 5675 5674 5674 5674 5674 5673 5671 5669 5666 5662 5658 5653 5648 5641 5635 5628 5621 5613 5604 5595 5585 5575 5566 5556 5545 5534 5521 5508 5493 5476 5458
5624 5632 5639 5645 5651 5655 5659 5662 5664 5666 5667 5667 5667 5667 5667 5667 5666 5664 5662 5660 5656 5652 5647 5642 5636 5629 5622 5614 5607 5598 5589 5579 5569 5559 5550 5539 5527 5514 5501 5485 5468 5449 5431
5622 5629 5635 5641 5646 5650 5653 5655 5658 5659 5660 5660 5660 5660 5660 5660 5658 5656 5654 5651 5647 5642 5636 5630 5623 5616 5609 5600 5592 5583 5574 5564 5554 5544 5533 5521 5508 5493 5477 5460 5441 5421 5401
5620 5626 5631 5636 5641 5644 5647 5650 5651 5653 5653 5654 5654 5654 5653 5652 5650 5648 5645 5641 5636 5631 5625 5618 5611 5604 5595 5586 5577 5568 5559 5549 5539 5528 5516 5503 5488 5471 5455 5436 5415 5393 5374
5618 5623 5628 5632 5636 5639 5642 5644 5646 5647 5648 5648 5648 5647 5646 5644 5642 5639 5635 5631 5625 5620 5613 5607 5599 5591 5582 5572 5563 5554 5545 5534 5522 5510 5497 5483 5465 5447 5430 5413 5394 5376 5359
5617 5622 5626 5629 5632 5635 5637 5639 5640 5641 5641 5641 5641 5639 5638 5636 5633 5630 5625 5620 5615 5609 5602 5594 5586 5578 5569 5559 5550 5541 5530 5518 5505 5490 5475 5460 5443 5424 5406 5391 5377 5362 5348
5616 5620 5623 5626 5628 5631 5632 5634 5635 5635 5635 5635 5634 5632 5630 5628 5624 5620 5615 5610 5604 5597 5590 5582 5574 5565 5556 5546 5536 5526 5515 5502 5488 5471 5453 5436 5421 5404 5386 5372 5361 5350 5340
5615 5618 5620 5623 5625 5626 5628 5629 5629 5629 5629 5628 5626 5624 5622 5619 5615 5610 5605 5599 5593 5585 5578 5569 5561 5552 5543 5533 5522 5510 5499 5486 5471 5453 5433 5414 5396 5380 5366 5356 5348 5340 5332
5613 5615 5617 5619 5621 5622 5623 5623 5623 5623 5622 5621 5619 5616 5613 5610 5605 5600 5595 5588 5582 5574 5566 5558 5548 5538 5529 5518 5506 5493 5478 5464 5449 5432 5414 5395 5377 5363 5352 5344 5337 5331 5324
5610 5612 5614 5615 5616 5617 5618 5618 5617 5616 5615 5613 5611 5608 5604 5600 5595 5590 5584 5578 5570 5562 5554 5545 5535 5524 5513 5502 5490 5475 5459 5442 5427 5410 5392 5376 5363 5352 5343 5336 5329 5323 5317
5606 5608 5610 5611 5612 5612 5612 5612 5611 5609 5607 5605 5602 5599 5595 5590 5585 5579 5573 5566 5558 5550 5542 5533 5523 5512 5500 5487 5473 5458 5440 5422 5406 5388 5372 5360 5351 5343 5335 5329 5323 5317 5311
5603 5605 5606 5606 5607 5607 5606 5605 5604 5602 5600 5597 5594 5590 5586 5581 5575 5568 5561 5554 5546 5538 5529 5520 5510 5498 5484 5470 5456 5440 5422 5405 5388 5373 5360 5349 5341 5334 5328 5322 5316 5310 5304
5600 5601 5602 5602 5602 5601 5600 5599 5597 5595 5592 5589 5585 5581 5576 5570 5564 5557 5550 5543 5535 5526 5517 5507 5495 5482 5468 5452 5435 5418 5401 5386 5372 5360 5350 5341 5334 5328 5321 5315 5308 5303 5297
5596 5597 5597 5597 5597 5596 5594 5592 5590 5587 5584 5580 5576 5571 5566 5560 5554 5547 5539 5531 5523 5512 5501 5489 5476 5462 5446 5431 5415 5398 5381 5368 5358 5349 5341 5335 5328 5322 5316 5310 5303 5297 5291